| time (UTC) | temp C | wind direction | speed KPH | gust KPH | rain 1hr cm | rain 24hr cm | rain mn cm | humidity % | barometer mb |
| 20260906022039 | 27 | 83 | 0.0 | 1.6 | 0.00 | 0.00 | 0.00 | 78 | 1010.9 |
| 20260906021020 | 27 | 97 | 0.0 | 1.6 | 0.00 | 0.00 | 0.00 | 77 | 1010.9 |
| 20260906020037 | 27 | 97 | 0.0 | 1.6 | 0.00 | 0.00 | 0.00 | 76 | 1011.0 |
| 20260906015037 | 28 | 78 | 0.0 | 1.6 | 0.00 | 0.00 | 0.00 | 75 | 1011.0 |
| 20260906014037 | 28 | 68 | 0.0 | 1.6 | 0.00 | 0.00 | 0.00 | 73 | 1010.9 |
| 20260906013020 | 28 | 223 | 0.0 | 1.6 | 0.00 | 0.00 | 0.00 | 73 | 1011.0 |
| 20260906012018 | 28 | 107 | 0.0 | 1.6 | 0.00 | 0.00 | 0.00 | 72 | 1011.1 |
| 20260906011038 | 28 | 85 | 0.0 | 1.6 | 0.00 | 0.00 | 0.00 | 72 | 1011.2 |
| 20260906010018 | 29 | 117 | 0.0 | 1.6 | 0.00 | 0.00 | 0.00 | 71 | 1011.2 |
| 20260906005018 | 30 | 106 | 0.0 | 1.6 | 0.00 | 0.00 | 0.00 | 70 | 1011.0 |
| 20260906004018 | 30 | 75 | 0.0 | 1.6 | 0.00 | 0.00 | 0.00 | 69 | 1010.9 |
| 20260906003019 | 31 | 108 | 1.6 | 1.6 | 0.00 | 0.00 | 0.00 | 65 | 1010.7 |
| 20260906002019 | 31 | 97 | 1.6 | 1.6 | 0.00 | 0.00 | 0.00 | 62 | 1010.8 |
| 20260906001019 | 32 | 98 | 1.6 | 3.2 | 0.00 | 0.00 | 0.00 | 60 | 1010.8 |
| 20260906000019 | 33 | 84 | 1.6 | 3.2 | 0.00 | 0.00 | 0.00 | 57 | 1010.9 |
| 20260905235019 | 33 | 82 | 1.6 | 3.2 | 0.00 | 0.00 | 0.00 | 54 | 1011.0 |
| 20260905234019 | 33 | 75 | 1.6 | 3.2 | 0.00 | 0.00 | 0.00 | 52 | 1011.1 |
| 20260905233017 | 33 | 78 | 1.6 | 3.2 | 0.00 | 0.00 | 0.00 | 52 | 1011.0 |
| 20260905232057 | 34 | 75 | 1.6 | 3.2 | 0.00 | 0.00 | 0.00 | 50 | 1010.9 |
| 20260905231020 | 35 | 77 | 1.6 | 3.2 | 0.00 | 0.00 | 0.00 | 49 | 1010.8 |
| 20260905230020 | 35 | 73 | 1.6 | 4.8 | 0.00 | 0.00 | 0.00 | 45 | 1010.8 |
| 20260905225020 | 36 | 61 | 1.6 | 6.4 | 0.00 | 0.00 | 0.00 | 44 | 1010.8 |
| 20260905224017 | 37 | 83 | 3.2 | 9.7 | 0.00 | 0.00 | 0.00 | 42 | 1010.8 |
| 20260905223018 | 39 | 72 | 3.2 | 4.8 | 0.00 | 0.00 | 0.00 | 40 | 1010.8 |
| 20260905222018 | 40 | 70 | 3.2 | 6.4 | 0.00 | 0.00 | 0.00 | 39 | 1010.8 |
| 20260905221018 | 39 | 56 | 3.2 | 6.4 | 0.00 | 0.00 | 0.00 | 40 | 1011.0 |
| 20260905220018 | 39 | 55 | 3.2 | 8.0 | 0.00 | 0.00 | 0.00 | 39 | 1011.0 |
| 20260905215018 | 39 | 59 | 3.2 | 8.0 | 0.00 | 0.00 | 0.00 | 39 | 1010.9 |
| 20260905214018 | 40 | 58 | 3.2 | 8.0 | 0.00 | 0.00 | 0.00 | 39 | 1010.9 |
| 20260905213039 | 39 | 63 | 3.2 | 6.4 | 0.00 | 0.00 | 0.00 | 40 | 1010.9 |
| 20260905212019 | 38 | 76 | 3.2 | 11.3 | 0.00 | 0.00 | 0.00 | 41 | 1011.0 |
| 20260905211039 | 37 | 66 | 3.2 | 6.4 | 0.00 | 0.00 | 0.00 | 41 | 1011.1 |
| 20260905210019 | 37 | 74 | 3.2 | 6.4 | 0.00 | 0.00 | 0.00 | 43 | 1011.2 |
| 20260905205016 | 37 | 138 | 3.2 | 6.4 | 0.00 | 0.00 | 0.00 | 42 | 1011.4 |
| 20260905204019 | 37 | 14 | 4.8 | 8.0 | 0.00 | 0.00 | 0.00 | 43 | 1011.5 |
| 20260905203019 | 38 | 60 | 4.8 | 9.7 | 0.00 | 0.00 | 0.00 | 41 | 1011.5 |
| 20260905202020 | 38 | 49 | 3.2 | 9.7 | 0.00 | 0.00 | 0.00 | 42 | 1011.6 |
| 20260905201020 | 37 | 61 | 3.2 | 6.4 | 0.00 | 0.00 | 0.00 | 43 | 1011.8 |
| 20260905200037 | 38 | 88 | 3.2 | 9.7 | 0.00 | 0.00 | 0.00 | 41 | 1012.0 |
| 20260905195017 | 37 | 29 | 3.2 | 8.0 | 0.00 | 0.00 | 0.00 | 42 | 1012.2 |
| 20260905194017 | 37 | 73 | 4.8 | 9.7 | 0.00 | 0.00 | 0.00 | 43 | 1012.2 |
| 20260905193020 | 37 | 64 | 3.2 | 8.0 | 0.00 | 0.00 | 0.00 | 44 | 1012.3 |
| 20260905192020 | 37 | 206 | 4.8 | 9.7 | 0.00 | 0.00 | 0.00 | 42 | 1012.3 |
| 20260905191018 | 37 | 48 | 3.2 | 8.0 | 0.00 | 0.00 | 0.00 | 43 | 1012.6 |
| 20260905190018 | 36 | 70 | 3.2 | 8.0 | 0.00 | 0.00 | 0.00 | 44 | 1012.9 |
| 20260905185018 | 37 | 53 | 3.2 | 6.4 | 0.00 | 0.00 | 0.00 | 43 | 1013.0 |
| 20260905184018 | 36 | 44 | 3.2 | 6.4 | 0.00 | 0.00 | 0.00 | 43 | 1013.1 |
| 20260905183018 | 36 | 138 | 3.2 | 6.4 | 0.00 | 0.00 | 0.00 | 43 | 1013.3 |
| 20260905182018 | 36 | 126 | 3.2 | 9.7 | 0.00 | 0.00 | 0.00 | 43 | 1013.3 |
| 20260905181018 | 35 | 268 | 4.8 | 11.3 | 0.00 | 0.00 | 0.00 | 44 | 1013.5 |
| 20260905180019 | 35 | 247 | 3.2 | 9.7 | 0.00 | 0.00 | 0.00 | 46 | 1013.5 |
| 20260905175018 | 35 | 201 | 3.2 | 8.0 | 0.00 | 0.00 | 0.00 | 47 | 1013.5 |
| 20260905174019 | 35 | 270 | 4.8 | 11.3 | 0.00 | 0.00 | 0.00 | 46 | 1013.6 |
| 20260905173019 | 35 | 48 | 3.2 | 4.8 | 0.00 | 0.00 | 0.00 | 46 | 1013.7 |
| 20260905172019 | 35 | 209 | 3.2 | 6.4 | 0.00 | 0.00 | 0.00 | 47 | 1013.7 |
| 20260905171019 | 35 | 61 | 3.2 | 4.8 | 0.00 | 0.00 | 0.00 | 49 | 1013.8 |
| 20260905170016 | 34 | 75 | 3.2 | 6.4 | 0.00 | 0.00 | 0.00 | 49 | 1013.9 |
| 20260905165100 | 33 | 76 | 1.6 | 4.8 | 0.00 | 0.00 | 0.00 | 50 | 1014.0 |
| 20260905164020 | 33 | 281 | 3.2 | 8.0 | 0.00 | 0.00 | 0.00 | 49 | 1014.1 |
| 20260905163020 | 33 | 73 | 3.2 | 4.8 | 0.00 | 0.00 | 0.00 | 55 | 1014.3 |
| 20260905162020 | 32 | 185 | 3.2 | 8.0 | 0.00 | 0.00 | 0.00 | 55 | 1014.3 |
| 20260905161017 | 32 | 172 | 1.6 | 4.8 | 0.00 | 0.00 | 0.00 | 57 | 1014.4 |
| 20260905160020 | 32 | 337 | 1.6 | 3.2 | 0.00 | 0.00 | 0.00 | 58 | 1014.5 |
| 20260905155040 | 31 | 37 | 1.6 | 4.8 | 0.00 | 0.00 | 0.00 | 61 | 1014.6 |
| 20260905154041 | 31 | 231 | 1.6 | 4.8 | 0.00 | 0.00 | 0.00 | 63 | 1014.6 |
| 20260905153021 | 30 | 255 | 1.6 | 4.8 | 0.00 | 0.00 | 0.00 | 64 | 1014.6 |
| 20260905152021 | 30 | 258 | 1.6 | 4.8 | 0.00 | 0.00 | 0.00 | 64 | 1014.7 |
| 20260905151021 | 30 | 288 | 1.6 | 4.8 | 0.00 | 0.00 | 0.00 | 65 | 1014.8 |
| 20260905150021 | 30 | 259 | 1.6 | 3.2 | 0.00 | 0.00 | 0.00 | 66 | 1014.8 |
| 20260905145021 | 29 | 61 | 0.0 | 1.6 | 0.00 | 0.00 | 0.00 | 68 | 1014.9 |
| 20260905144022 | 28 | 248 | 0.0 | 3.2 | 0.00 | 0.00 | 0.00 | 71 | 1014.9 |
| 20260905143022 | 28 | 76 | 0.0 | 0.0 | 0.00 | 0.00 | 0.00 | 70 | 1014.8 |
| 20260905142022 | 28 | 246 | 1.6 | 4.8 | 0.00 | 0.00 | 0.00 | 73 | 1014.8 |
| 20260905141022 | 27 | 70 | 0.0 | 1.6 | 0.00 | 0.00 | 0.00 | 75 | 1014.7 |
| 20260905140022 | 27 | 320 | 0.0 | 1.6 | 0.00 | 0.00 | 0.00 | 75 | 1014.7 |
| 20260905135042 | 26 | 30 | 0.0 | 1.6 | 0.00 | 0.00 | 0.00 | 78 | 1014.7 |
| 20260905134022 | 26 | 23 | 0.0 | 0.0 | 0.00 | 0.00 | 0.00 | 79 | 1014.8 |
| 20260905133023 | 25 | 0.0 | 0.0 | 0.00 | 0.00 | 0.00 | 82 | 1014.8 | |
| 20260905132023 | 25 | 304 | 0.0 | 1.6 | 0.00 | 0.00 | 0.00 | 85 | 1014.9 |
| 20260905131023 | 24 | 1 | 0.0 | 1.6 | 0.00 | 0.00 | 0.00 | 86 | 1014.8 |
| 20260905130023 | 24 | 0.0 | 0.0 | 0.00 | 0.00 | 0.00 | 87 | 1014.8 | |
| 20260905125044 | 23 | 321 | 0.0 | 1.6 | 0.00 | 0.00 | 0.00 | 87 | 1014.8 |
| 20260905124023 | 23 | 111 | 0.0 | 0.0 | 0.00 | 0.00 | 0.00 | 88 | 1014.9 |
| 20260905123023 | 23 | 325 | 0.0 | 0.0 | 0.00 | 0.00 | 0.00 | 89 | 1014.8 |
| 20260905122044 | 23 | 9 | 0.0 | 1.6 | 0.00 | 0.00 | 0.00 | 89 | 1014.6 |
| 20260905121024 | 23 | 206 | 0.0 | 1.6 | 0.00 | 0.00 | 0.00 | 89 | 1014.5 |
| 20260905120024 | 22 | 18 | 0.0 | 1.6 | 0.00 | 0.00 | 0.00 | 89 | 1014.4 |
| 20260905115024 | 22 | 91 | 0.0 | 1.6 | 0.00 | 0.00 | 0.00 | 89 | 1014.3 |
| 20260905114024 | 22 | 96 | 0.0 | 1.6 | 0.00 | 0.00 | 0.00 | 89 | 1014.2 |
| 20260905113044 | 22 | 76 | 0.0 | 3.2 | 0.00 | 0.00 | 0.00 | 89 | 1014.1 |
| 20260905112025 | 22 | 41 | 0.0 | 1.6 | 0.00 | 0.00 | 0.00 | 89 | 1014.0 |
| 20260905111025 | 22 | 13 | 0.0 | 0.0 | 0.00 | 0.00 | 0.00 | 89 | 1013.9 |
| 20260905110025 | 22 | 22 | 0.0 | 1.6 | 0.00 | 0.00 | 0.00 | 89 | 1013.7 |
| 20260905105025 | 22 | 331 | 0.0 | 1.6 | 0.00 | 0.00 | 0.00 | 89 | 1013.6 |
| 20260905104045 | 22 | 29 | 0.0 | 0.0 | 0.00 | 0.00 | 0.00 | 89 | 1013.5 |
| 20260905103045 | 22 | 66 | 0.0 | 1.6 | 0.00 | 0.00 | 0.00 | 89 | 1013.5 |
| 20260905102025 | 22 | 348 | 0.0 | 1.6 | 0.00 | 0.00 | 0.00 | 88 | 1013.4 |
| 20260905101025 | 22 | 53 | 0.0 | 1.6 | 0.00 | 0.00 | 0.00 | 88 | 1013.4 |
| 20260905100026 | 22 | 47 | 0.0 | 1.6 | 0.00 | 0.00 | 0.00 | 88 | 1013.4 |
| 20260905095046 | 22 | 357 | 0.0 | 1.6 | 0.00 | 0.00 | 0.00 | 88 | 1013.4 |
| 20260905094026 | 22 | 113 | 0.0 | 1.6 | 0.00 | 0.00 | 0.00 | 88 | 1013.4 |
| 20260905093026 | 22 | 115 | 0.0 | 1.6 | 0.00 | 0.00 | 0.00 | 88 | 1013.4 |
| 20260905092049 | 22 | 24 | 0.0 | 1.6 | 0.00 | 0.00 | 0.00 | 88 | 1013.4 |
| 20260905091027 | 22 | 20 | 0.0 | 1.6 | 0.00 | 0.00 | 0.00 | 88 | 1013.4 |
| 20260905090107 | 22 | 314 | 0.0 | 0.0 | 0.00 | 0.00 | 0.00 | 87 | 1013.4 |
| 20260905085027 | 23 | 156 | 0.0 | 1.6 | 0.00 | 0.00 | 0.00 | 87 | 1013.4 |
| 20260905084027 | 23 | 11 | 0.0 | 0.0 | 0.00 | 0.00 | 0.00 | 87 | 1013.4 |
| 20260905083027 | 23 | 220 | 0.0 | 1.6 | 0.00 | 0.00 | 0.00 | 87 | 1013.4 |
| 20260905082028 | 23 | 264 | 0.0 | 1.6 | 0.00 | 0.00 | 0.00 | 87 | 1013.4 |
| 20260905081048 | 23 | 21 | 0.0 | 1.6 | 0.00 | 0.00 | 0.00 | 87 | 1013.5 |
| 20260905080048 | 23 | 51 | 0.0 | 1.6 | 0.00 | 0.00 | 0.00 | 87 | 1013.5 |
| 20260905075028 | 23 | 331 | 0.0 | 1.6 | 0.00 | 0.00 | 0.00 | 87 | 1013.5 |
| 20260905074028 | 23 | 2 | 0.0 | 1.6 | 0.00 | 0.00 | 0.00 | 87 | 1013.5 |
| 20260905073028 | 23 | 77 | 0.0 | 1.6 | 0.00 | 0.00 | 0.00 | 87 | 1013.5 |
| 20260905072029 | 23 | 339 | 0.0 | 0.0 | 0.00 | 0.00 | 0.00 | 86 | 1013.5 |
| 20260905071028 | 23 | 34 | 0.0 | 1.6 | 0.00 | 0.00 | 0.00 | 87 | 1013.5 |
| 20260905070029 | 23 | 318 | 0.0 | 1.6 | 0.00 | 0.00 | 0.00 | 86 | 1013.4 |
| 20260905065029 | 23 | 75 | 0.0 | 0.0 | 0.00 | 0.00 | 0.00 | 86 | 1013.4 |
| 20260905064029 | 23 | 56 | 0.0 | 0.0 | 0.00 | 0.00 | 0.00 | 86 | 1013.4 |
| 20260905063029 | 23 | 102 | 0.0 | 1.6 | 0.00 | 0.00 | 0.00 | 86 | 1013.4 |
| 20260905062029 | 23 | 103 | 0.0 | 0.0 | 0.00 | 0.00 | 0.00 | 86 | 1013.4 |
| 20260905061030 | 23 | 11 | 0.0 | 1.6 | 0.00 | 0.00 | 0.00 | 86 | 1013.5 |
| 20260905060030 | 23 | 337 | 0.0 | 0.0 | 0.00 | 0.00 | 0.00 | 86 | 1013.5 |
| 20260905055030 | 23 | 103 | 0.0 | 1.6 | 0.00 | 0.00 | 0.00 | 86 | 1013.6 |
| 20260905054030 | 23 | 32 | 0.0 | 0.0 | 0.00 | 0.00 | 0.00 | 85 | 1013.7 |
| 20260905053030 | 24 | 352 | 0.0 | 1.6 | 0.00 | 0.00 | 0.00 | 85 | 1013.8 |
| 20260905052031 | 24 | 45 | 0.0 | 1.6 | 0.00 | 0.00 | 0.00 | 85 | 1013.7 |
| 20260905051030 | 24 | 304 | 0.0 | 1.6 | 0.00 | 0.00 | 0.00 | 84 | 1013.8 |
| 20260905050031 | 24 | 89 | 0.0 | 1.6 | 0.00 | 0.00 | 0.00 | 84 | 1013.8 |
| 20260905045031 | 24 | 347 | 0.0 | 1.6 | 0.00 | 0.00 | 0.00 | 84 | 1013.9 |
| 20260905044051 | 24 | 318 | 0.0 | 1.6 | 0.00 | 0.00 | 0.00 | 83 | 1013.9 |
| 20260905043031 | 25 | 84 | 0.0 | 1.6 | 0.00 | 0.00 | 0.00 | 83 | 1013.9 |
| 20260905042031 | 25 | 341 | 0.0 | 1.6 | 0.00 | 0.00 | 0.00 | 82 | 1013.8 |
| 20260905041032 | 25 | 127 | 0.0 | 1.6 | 0.00 | 0.00 | 0.00 | 82 | 1013.8 |
| 20260905040052 | 25 | 3 | 0.0 | 0.0 | 0.00 | 0.00 | 0.00 | 81 | 1013.8 |
| 20260905035032 | 25 | 127 | 0.0 | 0.0 | 0.00 | 0.00 | 0.00 | 81 | 1013.8 |
| 20260905034017 | 25 | 320 | 0.0 | 1.6 | 0.00 | 0.00 | 0.00 | 80 | 1013.9 |
| 20260905033017 | 25 | 70 | 0.0 | 1.6 | 0.00 | 0.00 | 0.00 | 79 | 1014.0 |
| 20260905032017 | 25 | 45 | 0.0 | 1.6 | 0.00 | 0.00 | 0.00 | 79 | 1014.0 |
| 20260905031057 | 25 | 0.0 | 0.0 | 0.00 | 0.00 | 0.00 | 78 | 1014.2 | |
| 20260905030018 | 25 | 249 | 0.0 | 1.6 | 0.00 | 0.00 | 0.00 | 78 | 1014.2 |
| 20260905025058 | 25 | 112 | 0.0 | 1.6 | 0.00 | 0.00 | 0.00 | 77 | 1014.4 |
| 20260905024018 | 25 | 98 | 0.0 | 1.6 | 0.00 | 0.00 | 0.00 | 77 | 1014.4 |
| 20260905023038 | 26 | 32 | 0.0 | 1.6 | 0.00 | 0.00 | 0.00 | 76 | 1014.4 |